Year,Month,Day,Hour,Minute,Value (Times are PST for temperature in C)
2020,04,14,00,00,1.50
2020,04,14,00,01,1.50
2020,04,14,00,02,1.40
2020,04,14,00,03,1.40
2020,04,14,00,04,1.40
2020,04,14,00,05,1.40
2020,04,14,00,06,1.30
2020,04,14,00,07,1.30
2020,04,14,00,08,1.30
2020,04,14,00,09,1.20
2020,04,14,00,10,1.20
2020,04,14,00,11,1.20
2020,04,14,00,12,1.10
2020,04,14,00,13,1.10
2020,04,14,00,14,1.10
2020,04,14,00,15,1.10
2020,04,14,00,16,1.00
2020,04,14,00,17,1.00
2020,04,14,00,18,1.00
2020,04,14,00,19,1.00
2020,04,14,00,20,1.00
2020,04,14,00,21,0.90
2020,04,14,00,22,0.90
2020,04,14,00,23,0.90
2020,04,14,00,24,0.90
2020,04,14,00,25,0.90
2020,04,14,00,26,0.90
2020,04,14,00,27,0.90
2020,04,14,00,28,0.90
2020,04,14,00,29,0.90
2020,04,14,00,30,0.90
2020,04,14,00,31,1.00
2020,04,14,00,32,1.00
2020,04,14,00,33,1.10
2020,04,14,00,34,1.10
2020,04,14,00,35,1.10
2020,04,14,00,36,1.10
2020,04,14,00,37,1.20
2020,04,14,00,38,1.20
2020,04,14,00,39,1.20
2020,04,14,00,40,1.30
2020,04,14,00,41,1.30
2020,04,14,00,42,1.30
2020,04,14,00,43,1.40
2020,04,14,00,44,1.40
2020,04,14,00,45,1.40
2020,04,14,00,46,1.50
2020,04,14,00,47,1.50
2020,04,14,00,48,1.60
2020,04,14,00,49,1.70
2020,04,14,00,50,1.80
2020,04,14,00,51,1.80
2020,04,14,00,52,1.80
2020,04,14,00,53,1.90
2020,04,14,00,54,2.00
2020,04,14,00,55,2.10
2020,04,14,00,56,2.20
2020,04,14,00,57,2.20
2020,04,14,00,58,2.30
2020,04,14,00,59,2.30
2020,04,14,01,00,2.30
2020,04,14,01,01,2.30
2020,04,14,01,02,2.30
2020,04,14,01,03,2.30
2020,04,14,01,04,2.20
2020,04,14,01,05,2.20
2020,04,14,01,06,2.20
2020,04,14,01,07,2.20
2020,04,14,01,08,2.10
2020,04,14,01,09,2.10
2020,04,14,01,10,2.00
2020,04,14,01,11,2.00
2020,04,14,01,12,1.90
2020,04,14,01,13,1.90
2020,04,14,01,14,1.80
2020,04,14,01,15,1.80
2020,04,14,01,16,1.70
2020,04,14,01,17,1.60
2020,04,14,01,18,1.60
2020,04,14,01,19,1.50
2020,04,14,01,20,1.40
2020,04,14,01,21,1.30
2020,04,14,01,22,1.30
2020,04,14,01,23,1.20
2020,04,14,01,24,1.20
2020,04,14,01,25,1.10
2020,04,14,01,26,1.10
2020,04,14,01,27,1.00
2020,04,14,01,28,1.00
2020,04,14,01,29,0.90
2020,04,14,01,30,0.90
2020,04,14,01,31,0.80
2020,04,14,01,32,0.80
2020,04,14,01,33,0.70
2020,04,14,01,34,0.70
2020,04,14,01,35,0.60
2020,04,14,01,36,0.60
2020,04,14,01,37,0.50
2020,04,14,01,38,0.50
2020,04,14,01,39,0.40
2020,04,14,01,40,0.40
2020,04,14,01,41,0.30
2020,04,14,01,42,0.30
2020,04,14,01,43,0.20
2020,04,14,01,44,0.20
2020,04,14,01,45,0.20
2020,04,14,01,46,0.10
2020,04,14,01,47,0.10
2020,04,14,01,48,0.00
2020,04,14,01,49,-0.10
2020,04,14,01,50,-0.10
2020,04,14,01,51,-0.10
2020,04,14,01,52,-0.20
2020,04,14,01,53,-0.20
2020,04,14,01,54,-0.30
2020,04,14,01,55,-0.30
2020,04,14,01,56,-0.30
2020,04,14,01,57,-0.40
2020,04,14,01,58,-0.40
2020,04,14,01,59,-0.50
2020,04,14,02,00,-0.50
2020,04,14,02,01,-0.50
2020,04,14,02,02,-0.60
2020,04,14,02,03,-0.60
2020,04,14,02,04,-0.60
2020,04,14,02,05,-0.70
2020,04,14,02,06,-0.70
2020,04,14,02,07,-0.70
2020,04,14,02,08,-0.80
2020,04,14,02,09,-0.80
2020,04,14,02,10,-0.80
2020,04,14,02,11,-0.80
2020,04,14,02,12,-0.90
2020,04,14,02,13,-0.90
2020,04,14,02,14,-1.00
2020,04,14,02,15,-1.00
2020,04,14,02,16,-1.00
2020,04,14,02,17,-1.10
2020,04,14,02,18,-1.10
2020,04,14,02,19,-1.20
2020,04,14,02,20,-1.20
2020,04,14,02,21,-1.20
2020,04,14,02,22,-1.20
2020,04,14,02,23,-1.30
2020,04,14,02,24,-1.30
2020,04,14,02,25,-1.30
2020,04,14,02,26,-1.30
2020,04,14,02,27,-1.40
2020,04,14,02,28,-1.40
2020,04,14,02,29,-1.40
2020,04,14,02,30,-1.40
2020,04,14,02,31,-1.40
2020,04,14,02,32,-1.50
2020,04,14,02,33,-1.50
2020,04,14,02,34,-1.50
2020,04,14,02,35,-1.60
2020,04,14,02,36,-1.60
2020,04,14,02,37,-1.60
2020,04,14,02,38,-1.70
2020,04,14,02,39,-1.70
2020,04,14,02,40,-1.70
2020,04,14,02,41,-1.70
2020,04,14,02,42,-1.70
2020,04,14,02,43,-1.70
2020,04,14,02,44,-1.80
2020,04,14,02,45,-1.70
2020,04,14,02,46,-1.70
2020,04,14,02,47,-1.70
2020,04,14,02,48,-1.70
2020,04,14,02,49,-1.80
2020,04,14,02,50,-1.80
2020,04,14,02,51,-1.80
2020,04,14,02,52,-1.80
2020,04,14,02,53,-1.80
2020,04,14,02,54,-1.80
2020,04,14,02,55,-1.80
2020,04,14,02,56,-1.80
2020,04,14,02,57,-1.80
2020,04,14,02,58,-1.80
2020,04,14,02,59,-1.90
2020,04,14,03,00,-1.90
2020,04,14,03,01,-1.90
2020,04,14,03,02,-1.90
2020,04,14,03,03,-1.90
2020,04,14,03,04,-1.90
2020,04,14,03,05,-2.00
2020,04,14,03,06,-2.00
2020,04,14,03,07,-2.00
2020,04,14,03,08,-2.00
2020,04,14,03,09,-2.10
2020,04,14,03,10,-2.10
2020,04,14,03,11,-2.10
2020,04,14,03,12,-2.10
2020,04,14,03,13,-2.20
2020,04,14,03,14,-2.20
2020,04,14,03,15,-2.20
2020,04,14,03,16,-2.20
2020,04,14,03,17,-2.20
2020,04,14,03,18,-2.20
2020,04,14,03,19,-2.30
2020,04,14,03,20,-2.30
2020,04,14,03,21,-2.30
2020,04,14,03,22,-2.30
2020,04,14,03,23,-2.30
2020,04,14,03,24,-2.30
2020,04,14,03,25,-2.40
2020,04,14,03,26,-2.40
2020,04,14,03,27,-2.40
2020,04,14,03,28,-2.50
2020,04,14,03,29,-2.50
2020,04,14,03,30,-2.50
2020,04,14,03,31,-2.50
2020,04,14,03,32,-2.50
2020,04,14,03,33,-2.50
2020,04,14,03,34,-2.50
2020,04,14,03,35,-2.60
2020,04,14,03,36,-2.50
2020,04,14,03,37,-2.50
2020,04,14,03,38,-2.60
2020,04,14,03,39,-2.60
2020,04,14,03,40,-2.60
2020,04,14,03,41,-2.60
2020,04,14,03,42,-2.60
2020,04,14,03,43,-2.60
2020,04,14,03,44,-2.60
2020,04,14,03,45,-2.60
2020,04,14,03,46,-2.60
2020,04,14,03,47,-2.70
2020,04,14,03,48,-2.70
2020,04,14,03,49,-2.70
2020,04,14,03,50,-2.70
2020,04,14,03,51,-2.70
2020,04,14,03,52,-2.70
2020,04,14,03,53,-2.80
2020,04,14,03,54,-2.80
2020,04,14,03,55,-2.80
2020,04,14,03,56,-2.80
2020,04,14,03,57,-2.80
2020,04,14,03,58,-2.80
2020,04,14,03,59,-2.80
2020,04,14,04,00,-2.80
2020,04,14,04,01,-2.90
2020,04,14,04,02,-2.90
2020,04,14,04,03,-2.90
2020,04,14,04,04,-2.90
2020,04,14,04,05,-3.00
2020,04,14,04,06,-3.00
2020,04,14,04,07,-3.00
2020,04,14,04,08,-3.00
2020,04,14,04,09,-3.10
2020,04,14,04,10,-3.10
2020,04,14,04,11,-3.10
2020,04,14,04,12,-3.10
2020,04,14,04,13,-3.20
2020,04,14,04,14,-3.20
2020,04,14,04,15,-3.20
2020,04,14,04,16,-3.20
2020,04,14,04,17,-3.20
2020,04,14,04,18,-3.20
2020,04,14,04,19,-3.20
2020,04,14,04,20,-3.30
2020,04,14,04,21,-3.30
2020,04,14,04,22,-3.30
2020,04,14,04,23,-3.30
2020,04,14,04,24,-3.30
2020,04,14,04,25,-3.30
2020,04,14,04,26,-3.30
2020,04,14,04,27,-3.30
2020,04,14,04,28,-3.30
2020,04,14,04,29,-3.30
2020,04,14,04,30,-3.30
2020,04,14,04,31,-3.30
2020,04,14,04,32,-3.30
2020,04,14,04,33,-3.40
2020,04,14,04,34,-3.40
2020,04,14,04,35,-3.40
2020,04,14,04,36,-3.40
2020,04,14,04,37,-3.40
2020,04,14,04,38,-3.50
2020,04,14,04,39,-3.50
2020,04,14,04,40,-3.50
2020,04,14,04,41,-3.60
2020,04,14,04,42,-3.60
2020,04,14,04,43,-3.60
2020,04,14,04,44,-3.60
2020,04,14,04,45,-3.60
2020,04,14,04,46,-3.60
2020,04,14,04,47,-3.60
2020,04,14,04,48,-3.60
2020,04,14,04,49,-3.60
2020,04,14,04,50,-3.60
2020,04,14,04,51,-3.60
2020,04,14,04,52,-3.60
2020,04,14,04,53,-3.60
2020,04,14,04,54,-3.70
2020,04,14,04,55,-3.70
2020,04,14,04,56,-3.70
2020,04,14,04,57,-3.70
2020,04,14,04,58,-3.70
2020,04,14,04,59,-3.70
2020,04,14,05,00,-3.80
2020,04,14,05,01,-3.70
2020,04,14,05,02,-3.80
2020,04,14,05,03,-3.80
2020,04,14,05,04,-3.80
2020,04,14,05,05,-3.80
2020,04,14,05,06,-3.80
2020,04,14,05,07,-3.80
2020,04,14,05,08,-3.90
2020,04,14,05,09,-3.90
2020,04,14,05,10,-3.90
2020,04,14,05,11,-3.90
2020,04,14,05,12,-3.90
2020,04,14,05,13,-3.90
2020,04,14,05,14,-3.90
2020,04,14,05,15,-4.00
2020,04,14,05,16,-4.00
2020,04,14,05,17,-4.00
2020,04,14,05,18,-4.10
2020,04,14,05,19,-4.10
2020,04,14,05,20,-4.10
2020,04,14,05,21,-4.10
2020,04,14,05,22,-4.10
2020,04,14,05,23,-4.10
2020,04,14,05,24,-4.10
2020,04,14,05,25,-4.10
2020,04,14,05,26,-4.10
2020,04,14,05,27,-4.20
2020,04,14,05,28,-4.20
2020,04,14,05,29,-4.20
2020,04,14,05,30,-4.20
2020,04,14,05,31,-4.20
2020,04,14,05,32,-4.10
2020,04,14,05,33,-4.10
2020,04,14,05,34,-4.10
2020,04,14,05,35,-4.10
2020,04,14,05,36,-4.10
2020,04,14,05,37,-4.10
2020,04,14,05,38,-4.10
2020,04,14,05,39,-4.10
2020,04,14,05,40,-4.10
2020,04,14,05,41,-4.10
2020,04,14,05,42,-4.10
2020,04,14,05,43,-4.10
2020,04,14,05,44,-4.10
2020,04,14,05,45,-4.10
2020,04,14,05,46,-4.10
2020,04,14,05,47,-4.10
2020,04,14,05,48,-4.10
2020,04,14,05,49,-4.10
2020,04,14,05,50,-4.10
2020,04,14,05,51,-4.10
2020,04,14,05,52,-4.10
2020,04,14,05,53,-4.10
2020,04,14,05,54,-4.20
2020,04,14,05,55,-4.20
2020,04,14,05,56,-4.20
2020,04,14,05,57,-4.20
2020,04,14,05,58,-4.20
2020,04,14,05,59,-4.10
2020,04,14,06,00,-4.10
2020,04,14,06,01,-4.10
2020,04,14,06,02,-4.10
2020,04,14,06,03,-4.10
2020,04,14,06,04,-4.10
2020,04,14,06,05,-4.10
2020,04,14,06,06,-4.10
2020,04,14,06,07,-4.10
2020,04,14,06,08,-4.20
2020,04,14,06,09,-4.20
2020,04,14,06,10,-4.20
2020,04,14,06,11,-4.20
2020,04,14,06,12,-4.30
2020,04,14,06,13,-4.30
2020,04,14,06,14,-4.30
2020,04,14,06,15,-4.30
2020,04,14,06,16,-4.30
2020,04,14,06,17,-4.30
2020,04,14,06,18,-4.30
2020,04,14,06,19,-4.20
2020,04,14,06,20,-4.20
2020,04,14,06,21,-4.20
2020,04,14,06,22,-4.20
2020,04,14,06,23,-4.20
2020,04,14,06,24,-4.20
2020,04,14,06,25,-4.20
2020,04,14,06,26,-4.20
2020,04,14,06,27,-4.20
2020,04,14,06,28,-4.20
2020,04,14,06,29,-4.30
2020,04,14,06,30,-4.30
2020,04,14,06,31,-4.30
2020,04,14,06,32,-4.30
2020,04,14,06,33,-4.30
2020,04,14,06,34,-4.30
2020,04,14,06,35,-4.30
2020,04,14,06,36,-4.40
2020,04,14,06,37,-4.40
2020,04,14,06,38,-4.40
2020,04,14,06,39,-4.40
2020,04,14,06,40,-4.40
2020,04,14,06,41,-4.40
2020,04,14,06,42,-4.50
2020,04,14,06,43,-4.50
2020,04,14,06,44,-4.50
2020,04,14,06,45,-4.60
2020,04,14,06,46,-4.60
2020,04,14,06,47,-4.60
2020,04,14,06,48,-4.60
2020,04,14,06,49,-4.60
2020,04,14,06,50,-4.70
2020,04,14,06,51,-4.70
2020,04,14,06,52,-4.70
2020,04,14,06,53,-4.70
2020,04,14,06,54,-4.70
2020,04,14,06,55,-4.70
2020,04,14,06,56,-4.70
2020,04,14,06,57,-4.70
2020,04,14,06,58,-4.70
2020,04,14,06,59,-4.70
2020,04,14,07,00,-4.70
2020,04,14,07,01,-4.70
2020,04,14,07,02,-4.80
2020,04,14,07,03,-4.80
2020,04,14,07,04,-4.80
2020,04,14,07,05,-4.80
2020,04,14,07,06,-4.80
2020,04,14,07,07,-4.90
2020,04,14,07,08,-4.90
2020,04,14,07,09,-4.90
2020,04,14,07,10,-4.90
2020,04,14,07,11,-5.00
2020,04,14,07,12,-5.00
2020,04,14,07,13,-5.00
2020,04,14,07,14,-5.00
2020,04,14,07,15,-5.00
2020,04,14,07,16,-5.00
2020,04,14,07,17,-5.00
2020,04,14,07,18,-5.00
2020,04,14,07,19,-5.00
2020,04,14,07,20,-5.00
2020,04,14,07,21,-5.00
2020,04,14,07,22,-4.90
2020,04,14,07,23,-4.90
2020,04,14,07,24,-4.90
2020,04,14,07,25,-4.90
2020,04,14,07,26,-4.90
2020,04,14,07,27,-4.90
2020,04,14,07,28,-4.90
2020,04,14,07,29,-4.90
2020,04,14,07,30,-4.90
2020,04,14,07,31,-4.90
2020,04,14,07,32,-4.90
2020,04,14,07,33,-4.90
2020,04,14,07,34,-4.90
2020,04,14,07,35,-4.90
2020,04,14,07,36,-4.90
2020,04,14,07,37,-4.90
2020,04,14,07,38,-4.90
2020,04,14,07,39,-4.90
2020,04,14,07,40,-5.00
2020,04,14,07,41,-5.00
2020,04,14,07,42,-5.00
2020,04,14,07,43,-5.00
2020,04,14,07,44,-5.00
2020,04,14,07,45,-4.90
2020,04,14,07,46,-4.80
2020,04,14,07,47,-4.80
2020,04,14,07,48,-4.80
2020,04,14,07,49,-4.70
2020,04,14,07,50,-4.70
2020,04,14,07,51,-4.70
2020,04,14,07,52,-4.70
2020,04,14,07,53,-4.70
2020,04,14,07,54,-4.70
2020,04,14,07,55,-4.70
2020,04,14,07,56,-4.70
2020,04,14,07,57,-4.70
2020,04,14,07,58,-4.80
2020,04,14,07,59,-4.80
2020,04,14,08,00,-4.80
2020,04,14,08,01,-4.80
2020,04,14,08,02,-4.80
2020,04,14,08,03,-4.80
2020,04,14,08,04,-4.80
2020,04,14,08,05,-4.80
2020,04,14,08,06,-4.80
2020,04,14,08,07,-4.80
2020,04,14,08,08,-4.80
2020,04,14,08,09,-4.80
2020,04,14,08,10,-4.80
2020,04,14,08,11,-4.80
2020,04,14,08,12,-4.80
2020,04,14,08,13,-4.80
2020,04,14,08,14,-4.80
2020,04,14,08,15,-4.80
2020,04,14,08,16,-4.80
2020,04,14,08,17,-4.80
2020,04,14,08,18,-4.80
2020,04,14,08,19,-4.80
2020,04,14,08,20,-4.80
2020,04,14,08,21,-4.80
2020,04,14,08,22,-4.80
2020,04,14,08,23,-4.80
2020,04,14,08,24,-4.80
2020,04,14,08,25,-4.80
2020,04,14,08,26,-4.80
2020,04,14,08,27,-4.80
2020,04,14,08,28,-4.80
2020,04,14,08,29,-4.80
2020,04,14,08,30,-4.80
2020,04,14,08,31,-4.80
2020,04,14,08,32,-4.80
2020,04,14,08,33,-4.80
2020,04,14,08,34,-4.80
2020,04,14,08,35,-4.80
2020,04,14,08,36,-4.80
2020,04,14,08,37,-4.80
2020,04,14,08,38,-4.80
2020,04,14,08,39,-4.80
2020,04,14,08,40,-4.90
2020,04,14,08,41,-4.90
2020,04,14,08,42,-4.90
2020,04,14,08,43,-4.90
2020,04,14,08,44,-4.90
2020,04,14,08,45,-4.90
2020,04,14,08,46,-4.90
2020,04,14,08,47,-4.90
2020,04,14,08,48,-4.90
2020,04,14,08,49,-4.90
2020,04,14,08,50,-4.90
2020,04,14,08,51,-4.90
2020,04,14,08,52,-4.90
2020,04,14,08,53,-4.90
2020,04,14,08,54,-4.90
2020,04,14,08,55,-4.90
2020,04,14,08,56,-4.90
2020,04,14,08,57,-4.90
2020,04,14,08,58,-4.90
2020,04,14,08,59,-4.90
2020,04,14,09,00,-4.90
2020,04,14,09,01,-4.90
2020,04,14,09,02,-4.90
2020,04,14,09,03,-4.90
2020,04,14,09,04,-4.90
2020,04,14,09,05,-4.90
2020,04,14,09,06,-4.90
2020,04,14,09,07,-4.90
2020,04,14,09,08,-4.90
2020,04,14,09,09,-4.90
2020,04,14,09,10,-4.90
2020,04,14,09,11,-4.90
2020,04,14,09,12,-4.80
2020,04,14,09,13,-4.80
2020,04,14,09,14,-4.80
2020,04,14,09,15,-4.80
2020,04,14,09,16,-4.80
2020,04,14,09,17,-4.80
2020,04,14,09,18,-4.80
2020,04,14,09,19,-4.80
2020,04,14,09,20,-4.80
2020,04,14,09,21,-4.80
2020,04,14,09,22,-4.80
2020,04,14,09,23,-4.80
2020,04,14,09,24,-4.80
2020,04,14,09,25,-4.80
2020,04,14,09,26,-4.80
2020,04,14,09,27,-4.80
2020,04,14,09,28,-4.70
2020,04,14,09,29,-4.70
2020,04,14,09,30,-4.70
2020,04,14,09,31,-4.70
2020,04,14,09,32,-4.70
2020,04,14,09,33,-4.70
2020,04,14,09,34,-4.60
2020,04,14,09,35,-4.60
2020,04,14,09,36,-4.50
2020,04,14,09,37,-4.40
2020,04,14,09,38,-4.30
2020,04,14,09,39,-4.20
2020,04,14,09,40,-4.00
2020,04,14,09,41,-3.80
2020,04,14,09,42,-3.70
2020,04,14,09,43,-3.60
2020,04,14,09,44,-3.40
2020,04,14,09,45,-3.30
2020,04,14,09,46,-3.10
2020,04,14,09,47,-3.00
2020,04,14,09,48,-2.90
2020,04,14,09,49,-2.80
2020,04,14,09,50,-2.60
2020,04,14,09,51,-2.50
2020,04,14,09,52,-2.40
2020,04,14,09,53,-2.30
2020,04,14,09,54,-2.20
2020,04,14,09,55,-2.10
2020,04,14,09,56,-2.00
2020,04,14,09,57,-2.00
2020,04,14,09,58,-2.00
2020,04,14,09,59,-1.90
2020,04,14,10,00,-1.90
2020,04,14,10,01,-1.80
2020,04,14,10,02,-1.70
2020,04,14,10,03,-1.60
2020,04,14,10,04,-1.50
2020,04,14,10,05,-1.40
2020,04,14,10,06,-1.30
2020,04,14,10,07,-1.20
2020,04,14,10,08,-1.10
2020,04,14,10,09,-1.00
2020,04,14,10,10,-0.90
2020,04,14,10,11,-0.80
2020,04,14,10,12,-0.70
2020,04,14,10,13,-0.70
2020,04,14,10,14,-0.60
2020,04,14,10,15,-0.50
2020,04,14,10,16,-0.40
2020,04,14,10,17,-0.30
2020,04,14,10,18,-0.20
2020,04,14,10,19,-0.10
2020,04,14,10,20,-0.10
2020,04,14,10,21,0.00
2020,04,14,10,22,0.00
2020,04,14,10,23,0.00
2020,04,14,10,24,0.00
2020,04,14,10,25,0.00
2020,04,14,10,26,0.10
2020,04,14,10,27,0.10
2020,04,14,10,28,0.10
2020,04,14,10,29,0.20
2020,04,14,10,30,0.20
2020,04,14,10,31,0.30
2020,04,14,10,32,0.40
2020,04,14,10,33,0.50
2020,04,14,10,34,0.60
2020,04,14,10,35,0.70
2020,04,14,10,36,0.80
2020,04,14,10,37,0.90
2020,04,14,10,38,1.00
2020,04,14,10,39,1.00
2020,04,14,10,40,1.10
2020,04,14,10,41,1.10
2020,04,14,10,42,1.20
2020,04,14,10,43,1.20
2020,04,14,10,44,1.30
2020,04,14,10,45,1.30
2020,04,14,10,46,1.40
2020,04,14,10,47,1.50
2020,04,14,10,48,1.60
2020,04,14,10,49,1.70
2020,04,14,10,50,1.80
2020,04,14,10,51,1.80
2020,04,14,10,52,1.90
2020,04,14,10,53,2.00
2020,04,14,10,54,2.00
2020,04,14,10,55,2.10
2020,04,14,10,56,2.10
2020,04,14,10,57,2.20
2020,04,14,10,58,2.30
2020,04,14,10,59,2.40
2020,04,14,11,00,2.50
2020,04,14,11,01,2.50
2020,04,14,11,02,2.60
2020,04,14,11,03,2.70
2020,04,14,11,04,2.70
2020,04,14,11,05,2.70
2020,04,14,11,06,2.70
2020,04,14,11,07,2.70
2020,04,14,11,08,2.70
2020,04,14,11,09,2.80
2020,04,14,11,10,2.80
2020,04,14,11,11,3.00
2020,04,14,11,12,3.10
2020,04,14,11,13,3.30
2020,04,14,11,14,3.40
2020,04,14,11,15,3.50
2020,04,14,11,16,3.70
2020,04,14,11,17,3.80
2020,04,14,11,18,4.00
2020,04,14,11,19,4.20
2020,04,14,11,20,4.30
2020,04,14,11,21,4.40
2020,04,14,11,22,4.50
2020,04,14,11,23,4.60
2020,04,14,11,24,4.60
2020,04,14,11,25,4.70
2020,04,14,11,26,4.70
2020,04,14,11,27,4.70
2020,04,14,11,28,4.70
2020,04,14,11,29,4.70
2020,04,14,11,30,4.70
2020,04,14,11,31,4.70
2020,04,14,11,32,4.80
2020,04,14,11,33,4.80
2020,04,14,11,34,4.90
2020,04,14,11,35,5.00
2020,04,14,11,36,5.10
2020,04,14,11,37,5.20
2020,04,14,11,38,5.30
2020,04,14,11,39,5.40
2020,04,14,11,40,5.50
2020,04,14,11,41,5.60
2020,04,14,11,42,5.70
2020,04,14,11,43,5.80
2020,04,14,11,44,5.80
2020,04,14,11,45,5.90
2020,04,14,11,46,6.00
2020,04,14,11,47,6.00
2020,04,14,11,48,6.00
2020,04,14,11,49,5.90
2020,04,14,11,50,5.70
2020,04,14,11,51,5.60
2020,04,14,11,52,5.60
2020,04,14,11,53,5.50
2020,04,14,11,54,5.50
2020,04,14,11,55,5.60
2020,04,14,11,56,5.60
2020,04,14,11,57,5.60
2020,04,14,11,58,5.70
2020,04,14,11,59,5.80
2020,04,14,12,00,5.90
2020,04,14,12,01,6.00
2020,04,14,12,02,6.10
2020,04,14,12,03,6.20
2020,04,14,12,04,6.30
2020,04,14,12,05,6.50
2020,04,14,12,06,6.60
2020,04,14,12,07,6.70
2020,04,14,12,08,6.70
2020,04,14,12,09,6.70
2020,04,14,12,10,6.80
2020,04,14,12,11,6.70
2020,04,14,12,12,6.70
2020,04,14,12,13,6.80
2020,04,14,12,14,6.90
2020,04,14,12,15,7.00
2020,04,14,12,16,7.00
2020,04,14,12,17,7.10
2020,04,14,12,18,7.20
2020,04,14,12,19,7.20
2020,04,14,12,20,7.20
2020,04,14,12,21,7.30
2020,04,14,12,22,7.30
2020,04,14,12,23,7.30
2020,04,14,12,24,7.30
2020,04,14,12,25,7.30
2020,04,14,12,26,7.30
2020,04,14,12,27,7.30
2020,04,14,12,28,7.40
2020,04,14,12,29,7.50
2020,04,14,12,30,7.50
2020,04,14,12,31,7.60
2020,04,14,12,32,7.60
2020,04,14,12,33,7.60
2020,04,14,12,34,7.70
2020,04,14,12,35,7.60
2020,04,14,12,36,7.40
2020,04,14,12,37,7.30
2020,04,14,12,38,7.20
2020,04,14,12,39,7.10
2020,04,14,12,40,7.10
2020,04,14,12,41,7.20
2020,04,14,12,42,7.20
2020,04,14,12,43,7.20
2020,04,14,12,44,7.20
2020,04,14,12,45,7.30
2020,04,14,12,46,7.30
2020,04,14,12,47,7.30
2020,04,14,12,48,7.30
2020,04,14,12,49,7.30
2020,04,14,12,50,7.30
2020,04,14,12,51,7.30
2020,04,14,12,52,7.30
2020,04,14,12,53,7.30
2020,04,14,12,54,7.30
2020,04,14,12,55,7.30
2020,04,14,12,56,7.30
2020,04,14,12,57,7.30
2020,04,14,12,58,7.30
2020,04,14,12,59,7.30
2020,04,14,13,00,7.30
2020,04,14,13,01,7.20
2020,04,14,13,02,7.20
2020,04,14,13,03,7.20
2020,04,14,13,04,7.30
2020,04,14,13,05,7.30
2020,04,14,13,06,7.30
2020,04,14,13,07,7.30
2020,04,14,13,08,7.30
2020,04,14,13,09,7.30
2020,04,14,13,10,7.30
2020,04,14,13,11,7.40
2020,04,14,13,12,7.50
2020,04,14,13,13,7.50
2020,04,14,13,14,7.60
2020,04,14,13,15,7.60
2020,04,14,13,16,7.70
2020,04,14,13,17,7.70
2020,04,14,13,18,7.80
2020,04,14,13,19,7.80
2020,04,14,13,20,7.80
2020,04,14,13,21,7.90
2020,04,14,13,22,8.00
2020,04,14,13,23,8.00
2020,04,14,13,24,8.00
2020,04,14,13,25,8.10
2020,04,14,13,26,8.10
2020,04,14,13,27,8.10
2020,04,14,13,28,8.10
2020,04,14,13,29,8.10
2020,04,14,13,30,8.10
2020,04,14,13,31,8.10
2020,04,14,13,32,8.10
2020,04,14,13,33,8.10
2020,04,14,13,34,8.10
2020,04,14,13,35,8.10
2020,04,14,13,36,8.10
2020,04,14,13,37,8.10
2020,04,14,13,38,8.10
2020,04,14,13,39,8.20
2020,04,14,13,40,8.20
2020,04,14,13,41,8.20
2020,04,14,13,42,8.20
2020,04,14,13,43,8.20
2020,04,14,13,44,8.30
2020,04,14,13,45,8.30
2020,04,14,13,46,8.30
2020,04,14,13,47,8.30
2020,04,14,13,48,8.30
2020,04,14,13,49,8.40
2020,04,14,13,50,8.40
2020,04,14,13,51,8.40
2020,04,14,13,52,8.40
2020,04,14,13,53,8.40
2020,04,14,13,54,8.40
2020,04,14,13,55,8.40
2020,04,14,13,56,8.50
2020,04,14,13,57,8.50
2020,04,14,13,58,8.50
2020,04,14,13,59,8.50
2020,04,14,14,00,8.50
2020,04,14,14,01,8.50
2020,04,14,14,02,8.60
2020,04,14,14,03,8.60
2020,04,14,14,04,8.70
2020,04,14,14,05,8.80
2020,04,14,14,06,8.90
2020,04,14,14,07,9.00
2020,04,14,14,08,9.10
2020,04,14,14,09,9.20
2020,04,14,14,10,9.30
2020,04,14,14,11,9.30
2020,04,14,14,12,9.40
2020,04,14,14,13,9.50
2020,04,14,14,14,9.50
2020,04,14,14,15,9.50
2020,04,14,14,16,9.40
2020,04,14,14,17,9.40
2020,04,14,14,18,9.40
2020,04,14,14,19,9.40
2020,04,14,14,20,9.40
2020,04,14,14,21,9.40
2020,04,14,14,22,9.40
2020,04,14,14,23,9.40
2020,04,14,14,24,9.50
2020,04,14,14,25,9.50
2020,04,14,14,26,9.50
2020,04,14,14,27,9.60
2020,04,14,14,28,9.60
2020,04,14,14,29,9.60
2020,04,14,14,30,9.60
2020,04,14,14,31,9.50
2020,04,14,14,32,9.50
2020,04,14,14,33,9.40
2020,04,14,14,34,9.40
2020,04,14,14,35,9.40
2020,04,14,14,36,9.30
2020,04,14,14,37,9.30
2020,04,14,14,38,9.20
2020,04,14,14,39,9.20
2020,04,14,14,40,9.10
2020,04,14,14,41,9.10
2020,04,14,14,42,9.10
2020,04,14,14,43,9.10
2020,04,14,14,44,9.10
2020,04,14,14,45,9.20
2020,04,14,14,46,9.20
2020,04,14,14,47,9.20
2020,04,14,14,48,9.30
2020,04,14,14,49,9.30
2020,04,14,14,50,9.40
2020,04,14,14,51,9.40
2020,04,14,14,52,9.40
2020,04,14,14,53,9.40
2020,04,14,14,54,9.40
2020,04,14,14,55,9.50
2020,04,14,14,56,9.50
2020,04,14,14,57,9.50
2020,04,14,14,58,9.50
2020,04,14,14,59,9.60
2020,04,14,15,00,9.60
2020,04,14,15,01,9.60
2020,04,14,15,02,9.60
2020,04,14,15,03,9.70
2020,04,14,15,04,9.70
2020,04,14,15,05,9.70
2020,04,14,15,06,9.80
2020,04,14,15,07,9.80
2020,04,14,15,08,9.90
2020,04,14,15,09,9.90
2020,04,14,15,10,9.90
2020,04,14,15,11,10.00
2020,04,14,15,12,10.00
2020,04,14,15,13,10.10
2020,04,14,15,14,10.10
2020,04,14,15,15,10.20
2020,04,14,15,16,10.30
2020,04,14,15,17,10.30
2020,04,14,15,18,10.30
2020,04,14,15,19,10.30
2020,04,14,15,20,10.30
2020,04,14,15,21,10.20
2020,04,14,15,22,10.20
2020,04,14,15,23,10.20
2020,04,14,15,24,10.20
2020,04,14,15,25,10.20
2020,04,14,15,26,10.20
2020,04,14,15,27,10.20
2020,04,14,15,28,10.30
2020,04,14,15,29,10.30
2020,04,14,15,30,10.40
2020,04,14,15,31,10.50
2020,04,14,15,32,10.60
2020,04,14,15,33,10.60
2020,04,14,15,34,10.70
2020,04,14,15,35,10.70
2020,04,14,15,36,10.70
2020,04,14,15,37,10.80
2020,04,14,15,38,10.80
2020,04,14,15,39,10.80
2020,04,14,15,40,10.90
2020,04,14,15,41,10.90
2020,04,14,15,42,11.00
2020,04,14,15,43,11.10
2020,04,14,15,44,11.20
2020,04,14,15,45,11.20
2020,04,14,15,46,11.30
2020,04,14,15,47,11.40
2020,04,14,15,48,11.40
2020,04,14,15,49,11.40
2020,04,14,15,50,11.30
2020,04,14,15,51,11.30
2020,04,14,15,52,11.20
2020,04,14,15,53,11.20
2020,04,14,15,54,11.10
2020,04,14,15,55,11.00
2020,04,14,15,56,11.00
2020,04,14,15,57,11.00
2020,04,14,15,58,11.00
2020,04,14,15,59,11.10
2020,04,14,16,00,11.10
2020,04,14,16,01,11.00
2020,04,14,16,02,11.00
2020,04,14,16,03,10.90
2020,04,14,16,04,10.80
2020,04,14,16,05,10.80
2020,04,14,16,06,10.80
2020,04,14,16,07,10.70
2020,04,14,16,08,10.70
2020,04,14,16,09,10.70
2020,04,14,16,10,10.60
2020,04,14,16,11,10.60
2020,04,14,16,12,10.60
2020,04,14,16,13,10.60
2020,04,14,16,14,10.60
2020,04,14,16,15,10.60
2020,04,14,16,16,10.70
2020,04,14,16,17,10.70
2020,04,14,16,18,10.70
2020,04,14,16,19,10.80
2020,04,14,16,20,10.80
2020,04,14,16,21,10.80
2020,04,14,16,22,10.90
2020,04,14,16,23,10.90
2020,04,14,16,24,10.90
2020,04,14,16,25,10.90
2020,04,14,16,26,10.80
2020,04,14,16,27,10.80
2020,04,14,16,28,10.80
2020,04,14,16,29,10.80
2020,04,14,16,30,10.80
2020,04,14,16,31,10.80
2020,04,14,16,32,10.80
2020,04,14,16,33,10.80
2020,04,14,16,34,10.80
2020,04,14,16,35,10.80
2020,04,14,16,36,10.80
2020,04,14,16,37,10.80
2020,04,14,16,38,10.80
2020,04,14,16,39,10.80
2020,04,14,16,40,10.80
2020,04,14,16,41,10.80
2020,04,14,16,42,10.70
2020,04,14,16,43,10.70
2020,04,14,16,44,10.70
2020,04,14,16,45,10.70
2020,04,14,16,46,10.80
2020,04,14,16,47,10.80
2020,04,14,16,48,10.80
2020,04,14,16,49,10.80
2020,04,14,16,50,10.90
2020,04,14,16,51,10.90
2020,04,14,16,52,10.90
2020,04,14,16,53,10.90
2020,04,14,16,54,10.90
2020,04,14,16,55,10.90
2020,04,14,16,56,10.80
2020,04,14,16,57,10.80
2020,04,14,16,58,10.80
2020,04,14,16,59,10.80
2020,04,14,17,00,10.80
2020,04,14,17,01,10.80
2020,04,14,17,02,10.80
2020,04,14,17,03,10.80
2020,04,14,17,04,10.80
2020,04,14,17,05,10.90
2020,04,14,17,06,10.90
2020,04,14,17,07,10.90
2020,04,14,17,08,10.90
2020,04,14,17,09,10.90
2020,04,14,17,10,10.90
2020,04,14,17,11,10.90
2020,04,14,17,12,10.90
2020,04,14,17,13,10.90
2020,04,14,17,14,10.90
2020,04,14,17,15,10.90
2020,04,14,17,16,10.90
2020,04,14,17,17,10.90
2020,04,14,17,18,10.90
2020,04,14,17,19,10.90
2020,04,14,17,20,10.90
2020,04,14,17,21,10.90
2020,04,14,17,22,10.90
2020,04,14,17,23,10.90
2020,04,14,17,24,10.90
2020,04,14,17,25,11.00
2020,04,14,17,26,11.00
2020,04,14,17,27,11.10
2020,04,14,17,28,11.10
2020,04,14,17,29,11.10
2020,04,14,17,30,11.20
2020,04,14,17,31,11.20
2020,04,14,17,32,11.20
2020,04,14,17,33,11.30
2020,04,14,17,34,11.30
2020,04,14,17,35,11.30
2020,04,14,17,36,11.30